This is the latest recevied weather packets stored in our database for station/object N5YHM-13. If no packets are shown the sender has not sent any weather packets the latest 10 day(s).
| Time | Temp. | Humidity | Pressure | Rain* | Wind** | Luminosity | Snow |
|---|---|---|---|---|---|---|---|
| 1788041034 | 32.78° C | 47% | 1016.8 hPa | 0 mm | - | 8 W/m² | - |
| 1788040732 | 32.78° C | 43% | 1017.1 hPa | 0 mm | - | 9 W/m² | - |
| 1788040426 | 32.78° C | 44% | 1016.9 hPa | 0 mm | - | 8 W/m² | - |
| 1788040123 | 32.78° C | 45% | 1016.9 hPa | 0 mm | - | 12 W/m² | - |
| 1788039817 | 32.78° C | 43% | 1017 hPa | 0 mm | - | 9 W/m² | - |
| 1788039517 | 32.78° C | 44% | 1017.2 hPa | 0 mm | - | 9 W/m² | - |
| 1788039213 | 32.78° C | 44% | 1017 hPa | 0 mm | - | 11 W/m² | - |
| 1788038908 | 32.78° C | 45% | 1017.3 hPa | 0 mm | - | 9 W/m² | - |
| 1788038603 | 33.33° C | 46% | 1017.2 hPa | 0 mm | - | 10 W/m² | - |
| 1788038302 | 33.33° C | 45% | 1017.2 hPa | 0 mm | - | 13 W/m² | - |
| 1788037992 | 32.78° C | 46% | 1017.2 hPa | 0 mm | - | 11 W/m² | - |
| 1788037686 | 33.33° C | 47% | 1017.1 hPa | 0 mm | - | 11 W/m² | - |
| 1788037381 | 33.33° C | 44% | 1017.3 hPa | 0 mm | - | 12 W/m² | - |
| 1788037081 | 33.33° C | 45% | 1017.2 hPa | 0 mm | - | 71 W/m² | - |
| 1788036776 | 33.89° C | 44% | 1017.5 hPa | 0 mm | - | 14 W/m² | - |
| 1788036473 | 33.33° C | 46% | 1017.3 hPa | 0 mm | - | 20 W/m² | - |
| 1788036168 | 33.33° C | 44% | 1017.5 hPa | 0 mm | - | 22 W/m² | - |
| 1788035868 | 33.33° C | 46% | 1017.4 hPa | 0 mm | - | 98 W/m² | - |
| 1788035562 | 33.33° C | 43% | 1017.4 hPa | 0 mm | - | 18 W/m² | - |
| 1788035258 | 33.33° C | 46% | 1017.6 hPa | 0 mm | - | 18 W/m² | - |
| 1788034953 | 33.89° C | 46% | 1017.6 hPa | 0 mm | - | 17 W/m² | - |
| 1788034644 | 33.33° C | 45% | 1017.8 hPa | 0 mm | - | 16 W/m² | - |
| 1788034340 | 33.33° C | 46% | 1017.8 hPa | 0 mm | - | 22 W/m² | - |
| 1788034039 | 33.89° C | 45% | 1018.1 hPa | 0 mm | - | 70 W/m² | - |
| 1788033734 | 33.33° C | 45% | 1018.1 hPa | 0 mm | - | 39 W/m² | - |
* Rain latest hour (hover to see other rain measurements)
** Current wind speed in m/s (hover to see current wind gust speed)